Le nostre stazioni meteo in Italia

Pubblicità
Il mio iltempo24.it
Ustica, Italia (16400): Temperatura & dewpoint: 19.01.2020 06:00:00 - 25.01.2020 06:00:00 (CET)Ustica, Italia (16400): velocità del vento: 19.01.2020 06:00:00 - 25.01.2020 06:00:00 (CET)Ustica, Italia (16400): direzione del vento: 19.01.2020 06:00:00 - 25.01.2020 06:00:00 (CET)Ustica, Italia (16400): reduced air pressure: 19.01.2020 06:00:00 - 25.01.2020 06:00:00 (CET)Ustica, Italia (16400): visibility: 19.01.2020 06:00:00 - 25.01.2020 06:00:00 (CET)Ustica, Italia (16400): ore di luce: 19.01.2020 06:00:00 - 25.01.2020 06:00:00 (CET)
Data & Tempo tt [°C] td [°C] ff [km/h] ff [kn] dd ppp [hPa] vv [km] sd [min]
25.01.2020 06:00:00 - - - - - - - -
25.01.2020 05:00:00 - - - - - - - -
25.01.2020 04:00:00 - - - - - - - -
25.01.2020 03:00:00 - - - - - - - -
25.01.2020 02:00:00 - - - - - - - -
25.01.2020 01:00:00 - - - - - - - -
25.01.2020 00:00:00 - - - - - - - -
24.01.2020 23:00:00 - - - - - - - -
24.01.2020 22:00:00 - - - - - - - -
24.01.2020 21:00:00 - - - - - - - -
24.01.2020 20:00:00 - - - - - - - -
24.01.2020 19:00:00 12,8 11,5 24 13 SE 1026,1 20 0
24.01.2020 18:00:00 13,0 10,7 24 13 SE 1026,0 20 0
24.01.2020 17:00:00 13,8 11,0 18 10 SE 1026,9 20 54
24.01.2020 16:00:00 15,4 11,6 18 10 SE 1026,8 20 60
24.01.2020 15:00:00 15,6 11,0 13 7 ESE 1026,6 20 60
24.01.2020 14:00:00 15,0 11,4 11 6 SSE 1027,7 20 60
24.01.2020 13:00:00 14,6 11,2 11 6 SSE 1027,8 20 60
24.01.2020 12:00:00 14,4 11,2 13 7 SSE 1027,3 20 60
24.01.2020 11:00:00 13,8 9,0 22 12 SE 1027,5 20 60
24.01.2020 10:00:00 13,2 10,7 24 13 SSE 1027,8 20 60
24.01.2020 09:00:00 12,4 10,1 26 14 SSE 1027,0 20 60
24.01.2020 08:00:00 12,0 9,9 28 15 SSE 1028,2 20 12
24.01.2020 07:00:00 11,8 10,0 22 12 SE 1027,4 20 0
24.01.2020 06:00:00 - - - - - - - -
24.01.2020 05:00:00 - - - - - - - -
24.01.2020 04:00:00 - - - - - - - -
24.01.2020 03:00:00 - - - - - - - -
24.01.2020 02:00:00 - - - - - - - -
24.01.2020 01:00:00 - - - - - - - -
24.01.2020 00:00:00 - - - - - - - -
23.01.2020 23:00:00 - - - - - - - -
23.01.2020 22:00:00 - - - - - - - -
23.01.2020 21:00:00 - - - - - - - -
23.01.2020 20:00:00 - - - - - - - -
23.01.2020 19:00:00 12,8 9,8 16 9 ESE 1028,3 20 0
23.01.2020 18:00:00 13,2 9,1 16 9 SE 1028,7 20 0
23.01.2020 17:00:00 14,0 10,6 13 7 ESE 1029,3 20 42
23.01.2020 16:00:00 14,8 11,0 15 8 SE 1028,9 20 60
23.01.2020 15:00:00 15,6 12,0 15 8 SE 1029,3 20 60
23.01.2020 14:00:00 15,6 11,8 15 8 SE 1029,4 20 60
23.01.2020 13:00:00 15,6 12,7 16 9 SSE 1029,5 20 60
23.01.2020 12:00:00 15,6 13,1 15 8 SE 1029,4 20 60
23.01.2020 11:00:00 15,4 12,5 15 8 ESE 1029,2 20 60
23.01.2020 10:00:00 15,4 12,7 8 4 E 1029,3 20 54
23.01.2020 09:00:00 15,0 12,3 9 5 SE 1029,0 20 60
23.01.2020 08:00:00 12,4 10,0 8 4 SE 1029,3 20 36
23.01.2020 07:00:00 12,0 9,6 8 4 S 1029,2 20 0
23.01.2020 06:00:00 - - - - - - - -
23.01.2020 05:00:00 - - - - - - - -
23.01.2020 04:00:00 - - - - - - - -
23.01.2020 03:00:00 - - - - - - - -
23.01.2020 02:00:00 - - - - - - - -
23.01.2020 01:00:00 - - - - - - - -
23.01.2020 00:00:00 - - - - - - - -
22.01.2020 23:00:00 - - - - - - - -
22.01.2020 22:00:00 - - - - - - - -
22.01.2020 21:00:00 - - - - - - - -
22.01.2020 20:00:00 - - - - - - - -
22.01.2020 19:00:00 12,0 10,2 11 6 ESE 1034,1 20 0
22.01.2020 18:00:00 12,6 10,8 9 5 E 1033,7 20 0
22.01.2020 17:00:00 13,2 11,4 11 6 ESE 1033,8 20 24
22.01.2020 16:00:00 14,6 11,9 11 6 ESE 1034,0 20 36
22.01.2020 15:00:00 14,8 -30,0 13 7 SE 1033,9 20 36
22.01.2020 14:00:00 14,8 12,3 13 7 SE 1034,0 20 0
22.01.2020 13:00:00 15,0 12,7 13 7 SE 1033,9 20 0
22.01.2020 12:00:00 14,6 12,5 13 7 SSE 1034,6 20 0
22.01.2020 11:00:00 14,0 12,0 16 9 SSE 1034,8 20 0
22.01.2020 10:00:00 13,6 11,7 16 9 SSE 1035,0 20 0
22.01.2020 09:00:00 13,2 11,6 13 7 SSE 1035,1 20 0
22.01.2020 08:00:00 12,4 10,3 13 7 SE 1035,0 20 0
22.01.2020 07:00:00 12,2 10,3 11 6 SE 1034,9 20 0
22.01.2020 06:00:00 - - - - - - - -
22.01.2020 05:00:00 - - - - - - - -
22.01.2020 04:00:00 - - - - - - - -
22.01.2020 03:00:00 - - - - - - - -
22.01.2020 02:00:00 - - - - - - - -
22.01.2020 01:00:00 - - - - - - - -
22.01.2020 00:00:00 - - - - - - - -
21.01.2020 23:00:00 - - - - - - - -
21.01.2020 22:00:00 - - - - - - - -
21.01.2020 21:00:00 - - - - - - - -
21.01.2020 20:00:00 - - - - - - - -
21.01.2020 19:00:00 13,0 11,4 16 9 SE 1034,6 20 0
21.01.2020 18:00:00 13,6 12,2 18 10 ESE 1034,0 20 0
21.01.2020 17:00:00 14,0 12,4 22 12 ESE 1034,0 20 30
21.01.2020 16:00:00 14,8 13,2 24 13 SE 1033,7 20 60
21.01.2020 15:00:00 16,0 14,4 0 0 N 1033,8 20 60
21.01.2020 14:00:00 16,0 13,7 0 0 N 1034,8 20 60
21.01.2020 13:00:00 16,6 14,3 0 0 N 1034,7 20 60
21.01.2020 12:00:00 16,2 13,7 0 0 N 1035,8 20 60
21.01.2020 11:00:00 16,0 13,7 0 0 N 1036,1 20 60
21.01.2020 10:00:00 15,0 12,5 0 0 N 1035,8 20 60
21.01.2020 09:00:00 14,4 12,6 0 0 N 1035,1 20 60
21.01.2020 08:00:00 14,0 12,4 0 0 N 1035,2 20 0
21.01.2020 07:00:00 13,0 11,4 0 0 N 1034,7 20 0
21.01.2020 06:00:00 - - - - - - - -
21.01.2020 05:00:00 - - - - - - - -
21.01.2020 04:00:00 - - - - - - - -
21.01.2020 03:00:00 - - - - - - - -
21.01.2020 02:00:00 - - - - - - - -
21.01.2020 01:00:00 - - - - - - - -
21.01.2020 00:00:00 - - - - - - - -
20.01.2020 23:00:00 - - - - - - - -
20.01.2020 22:00:00 - - - - - - - -
20.01.2020 21:00:00 - - - - - - - -
20.01.2020 20:00:00 - - - - - - - -
20.01.2020 19:00:00 13,8 12,7 0 0 N 1032,0 20 0
20.01.2020 18:00:00 14,0 13,2 0 0 N 1031,1 20 0
20.01.2020 17:00:00 14,0 12,9 0 0 N 1030,3 20 0
20.01.2020 16:00:00 12,0 -30,0 0 0 N 1030,4 20 0
20.01.2020 15:00:00 14,4 13,0 0 0 N 1029,8 20 0
20.01.2020 14:00:00 14,0 11,9 0 0 N 1029,9 20 0
20.01.2020 13:00:00 15,0 12,5 0 0 N 1030,0 20 0
20.01.2020 12:00:00 15,2 12,3 0 0 N 1029,9 20 0
20.01.2020 11:00:00 15,4 12,2 0 0 N 1029,7 20 36
20.01.2020 10:00:00 14,2 11,7 0 0 N 1029,3 20 0
20.01.2020 09:00:00 13,8 11,3 0 0 N 1029,0 20 18
20.01.2020 08:00:00 13,0 10,2 0 0 N 1028,4 30 0
20.01.2020 07:00:00 12,0 9,7 0 0 N 1028,0 30 0
20.01.2020 06:00:00 - - - - - - - -
20.01.2020 05:00:00 - - - - - - - -
20.01.2020 04:00:00 - - - - - - - -
20.01.2020 03:00:00 - - - - - - - -
20.01.2020 02:00:00 - - - - - - - -
20.01.2020 01:00:00 - - - - - - - -
20.01.2020 00:00:00 - - - - - - - -
19.01.2020 23:00:00 - - - - - - - -
19.01.2020 22:00:00 - - - - - - - -
19.01.2020 21:00:00 - - - - - - - -
19.01.2020 20:00:00 - - - - - - - -
19.01.2020 19:00:00 11,0 9,2 15 8 ESE 1023,7 20 0
19.01.2020 18:00:00 12,0 8,1 11 6 ESE 1023,7 20 0
19.01.2020 17:00:00 12,0 7,1 5 3 E 1022,9 20 24
19.01.2020 16:00:00 13,6 7,8 8 4 ESE 1022,7 20 60
19.01.2020 15:00:00 14,6 8,8 4 2 N 1021,9 20 60
19.01.2020 14:00:00 15,0 9,2 4 2 N 1021,9 20 60
19.01.2020 13:00:00 14,0 8,6 4 2 N 1022,5 20 60
19.01.2020 12:00:00 15,0 10,0 5 3 NNO 1022,6 20 60
19.01.2020 11:00:00 14,0 10,6 4 2 N 1023,0 20 60
19.01.2020 10:00:00 13,6 11,3 8 4 NNO 1022,9 20 60
19.01.2020 09:00:00 13,0 9,6 5 3 NNO 1023,0 20 60
19.01.2020 08:00:00 11,0 9,7 9 5 N 1022,8 20 30
19.01.2020 07:00:00 11,0 9,7 9 5 - 1022,7 20 0
19.01.2020 06:00:00 - - - - - - - -

tt = Temperatura
td = dewpoint
ff = velocità del vento
dd = direzione del vento
ppp = reduced air pressure
vv = visibility
sd = ore di luce

Stazioni seguenti

WeatherPro
AMSI
MeteoEarth